Zurück zum Katalog

CZ-2C DEB

AktivHEO
NORAD 43373·DEBRIS·🇨🇳 China

Gestartet Dec 29, 2003 von Xichang Satellite Launch Center

Loading…

Nächste Überflüge (nächste 24 Stunden)

TLE

AktuellSource: Space-Track

Epoche: Sep 13, 2026, 04:45 UTC

1 43373U 03061C   26256.19853627  .00031997  52060-6  98303-3 0  9996
2 43373  18.6585 262.3581 6119184 262.1914  28.6852  3.93815584232809

Verfolge CZ-2C DEB in Echtzeit mit AllMySat

Download on the App Store